Williston, ND

11:22 AM CDT on May 26, 2018 (GMT -0500)
Sloulin International

Weather History for KISN - May, 2014

Change the Weather History Date:

Sunday, May 11, 2014

  Actual Average Record
Temperature  
Mean Temperature 49 °F 53 °F  
Max Temperature 58 °F 66 °F 96 °F (1900)
Min Temperature 40 °F 39 °F 17 °F (1980)
Degree Days  
Heating Degree Days 16 13  
Month to date heating degree days 189 157  
Since 1 July heating degree days 9067 8682  
Cooling Degree Days 0 0  
Month to date cooling degree days 0 0  
Year to date cooling degree days 0 1  
Moisture  
Dew Point 31 °F    
Average Humidity 55    
Maximum Humidity 86    
Minimum Humidity 23    
Precipitation  
Precipitation 0.05 in 0.05 in 1.10 in (1929)
Month to date precipitation 0.29 0.56  
Year to date precipitation 2.76 3.25  
Sea Level Pressure  
Sea Level Pressure 30.12 in    
Wind  
Wind Speed 17 mph (North)    
Max Wind Speed 26 mph    
Max Gust Speed 35 mph    
Visibility 10 miles    
Events Rain    
T = Trace of Precipitation, MM = Missing Value Source: NWS Daily Summary

Daily Weather History Graph

Daily Weather History Graph

Search for Another Location

Airport or City:

Astronomy

May. 11, 2014 Rise Set
Actual Time 6:20 AM CDT 9:22 PM CDT
Civil Twilight 5:43 AM CDT 9:58 PM CDT
Nautical Twilight 4:56 AM CDT 10:46 PM CDT
Astronomical Twilight 3:58 AM CDT 11:45 PM CDT
Moon 6:06 PM CDT (5/11) 4:43 AM CDT (5/11)
Length of Visible Light 16h 15m
Length of Day
15h 01m
Waxing Gibbous, 89% of the Moon is Illuminated
May 11
Waxing Gibbous
May 14
Full
May 21
Last Quarter
May 28
New
Jun 5
First Quarter

Hourly Weather History & Observations

Time (CDT) Temp. Windchill Dew Point Humidity Pressure Visibility Wind Dir Wind Speed Gust Speed Precip Events Conditions
12:52 AM 46.4 °F 40.1 °F 32.0 °F 57% 29.95 in 10.0 mi North 15.0 mph - N/A   Overcast
1:52 AM 46.0 °F 39.9 °F 33.1 °F 61% 29.99 in 10.0 mi North 13.8 mph - N/A   Mostly Cloudy
2:52 AM 43.0 °F 35.7 °F 37.0 °F 80% 30.00 in 10.0 mi North 15.0 mph - 0.00 in Rain Light Rain
3:52 AM 42.1 °F 34.5 °F 37.0 °F 82% 30.04 in 10.0 mi North 15.0 mph - 0.00 in   Overcast
4:52 AM 42.1 °F 33.9 °F 37.0 °F 82% 30.06 in 10.0 mi North 17.3 mph - 0.01 in Rain Light Rain
5:40 AM 41.0 °F 32.5 °F 37.0 °F 86% 30.02 in 10.0 mi North 17.3 mph 23.0 mph 0.01 in Rain Light Rain
5:52 AM 41.0 °F 31.1 °F 36.0 °F 82% 30.06 in 10.0 mi North 23.0 mph 28.8 mph 0.02 in Rain Light Rain
6:08 AM 39.9 °F 30.0 °F 36.0 °F 86% 30.02 in 10.0 mi North 21.9 mph 28.8 mph 0.00 in Rain Light Rain
6:52 AM 41.0 °F 32.8 °F 37.9 °F 89% 30.09 in 8.0 mi North 16.1 mph - 0.01 in Rain Light Rain
7:00 AM 41.0 °F 33.1 °F 37.9 °F 89% 30.06 in 9.0 mi North 15.0 mph - 0.00 in Rain Light Rain
7:52 AM 42.1 °F 36.1 °F 37.9 °F 85% 30.14 in 10.0 mi NNW 10.4 mph - 0.00 in   Overcast
8:52 AM 43.0 °F 37.7 °F 37.9 °F 82% 30.17 in 10.0 mi NNW 9.2 mph - 0.01 in Rain Light Rain
9:52 AM 45.0 °F 37.9 °F 37.9 °F 76% 30.15 in 10.0 mi North 16.1 mph - 0.00 in   Overcast
10:52 AM 46.9 °F - 37.0 °F 68% 30.17 in 10.0 mi NNE 11.5 mph - N/A   Overcast
11:17 AM 48.9 °F - 37.9 °F 66% 30.14 in 10.0 mi North 12.7 mph - N/A   Overcast
11:27 AM 48.9 °F - 37.0 °F 64% 30.14 in 10.0 mi North 15.0 mph - N/A   Overcast
11:52 AM 51.1 °F - 36.0 °F 56% 30.17 in 10.0 mi North 15.0 mph - N/A   Mostly Cloudy
12:52 PM 51.8 °F - 33.8 °F 50% 30.15 in 10.0 mi NNE 20.7 mph 25.3 mph N/A   Mostly Cloudy
1:52 PM 53.1 °F - 30.9 °F 43% 30.18 in 10.0 mi North 18.4 mph 27.6 mph N/A   Overcast
2:52 PM 54.0 °F - 27.0 °F 35% 30.18 in 10.0 mi North 20.7 mph 26.5 mph N/A   Mostly Cloudy
3:52 PM 57.2 °F - 24.8 °F 29% 30.15 in 10.0 mi North 20.7 mph 29.9 mph N/A   Partly Cloudy
4:52 PM 57.0 °F - 19.9 °F 24% 30.17 in 10.0 mi North 17.3 mph 26.5 mph N/A   Clear
5:52 PM 57.0 °F - 19.9 °F 24% 30.16 in 10.0 mi North 23.0 mph 31.1 mph N/A   Clear
6:52 PM 55.9 °F - 19.0 °F 24% 30.16 in 10.0 mi North 23.0 mph 28.8 mph N/A   Clear
7:52 PM 53.1 °F - 18.0 °F 25% 30.19 in 10.0 mi North 21.9 mph - N/A   Clear
8:52 PM 51.1 °F - 19.9 °F 29% 30.22 in 10.0 mi North 13.8 mph - N/A   Clear
9:52 PM 46.9 °F - 21.9 °F 37% 30.25 in 10.0 mi NNW 11.5 mph - N/A   Clear
10:52 PM 46.0 °F 39.0 °F 24.1 °F 42% 30.25 in 10.0 mi NNW 17.3 mph 25.3 mph N/A   Clear
11:52 PM 44.1 °F 36.2 °F 24.1 °F 45% 30.25 in 10.0 mi NNW 18.4 mph - N/A   Clear